Погода в Ижме

Погода в Ижме : погода сейчас, прогноз погоды и архив. Всё, что Вы хотите узнать о погоде в Ижме!

Поиск расширенной информации на нашем сайте:

Другие новости

Новости СМИ2

Главная страница сайта

Новости сайта

03.07.2017

Напоминаем, что на нашем специализированном сайте Метеоцентр.Азия вы можете получить высокодетализированные автоматические прогнозы погоды по пунктам России, СНГ и мира в авиационном формате (включающие направление и скорость ветра, видимость, явления погоды, количество и форму облачности, нижнюю и верхнюю границу облачности).


Погода в Ижме - сегодня

Время (UTC), дата Ветер
(°,м/с) 
Видим.   Явления Облачность Т
(°С)
Тd
(°С)
f(%) Тe
(°С)
Pmin
(гПа)
dP
(гПа)
Po
(мм)
O2
(г/м3)
Тmin Tmax R s Состояние
почвы
21 21.09.18 170 (Ю) 20000 м    3/0 верхняя 
[Ci fib]
+5 +4.4 96 +6  1009.3  0.3  753  297           
00 22.09.18 180 (Ю) 4000 м  дымка  ясно 
+3.1 +2.7 97 +3  1009.8  0.5  754  300           
06 22.09.18 180 (Ю) 20000 м    4/0 верхняя 
[Ci fib]
+9.6 +7.5 87 +10  1010.6  0.3  754  292           
09 22.09.18 220 (ЮЗ) 20000 м    10/0 средняя, верхняя 
[Ac trans|Ci fib]
+15.1 +7.8 62 +15  1010  -0.4  754  287           
12 22.09.18 180 (Ю) 20000 м    10/5 600 м средняя 
[Sc|Ac und]
+14.7 +9.2 70 +15  1009.3  -0.8  753  286           
15 22.09.18 200 (Ю) 10 км  слаб. дождь  10/6 600 м средняя 
[Sc|Ac As]
+11.4 +10.1 92 +12  1009  -0.3  753  289    +15.8  0.5     
18 22.09.18 190 (Ю) 20000 м  {дождь}  3/0 верхняя 
[Ci fib]
+12 +9.8 86 +13  1007.6  -1.4  752  289           
21 22.09.18 200 (Ю) 20000 м    6/0 верхняя 
[Cs]
+12 +10.3 89 +14  1006.6  -1  751  288           
00 23.09.18 190 (Ю) 20000 м    ясно 
+11.2 +10.2 94 +12  1006.2  -0.4  751  289           
03 23.09.18 190 (Ю) 20000 м    3/0 средняя 
[Ac lent]
+12 +11 94 +14  1006  -0.2  751  288  +10.6    0.8     
06 23.09.18 190 (Ю) 20000 м    10/8 300 м средняя 
[Sc|Ac As]
+14.9 +13.1 89 +21  1005.7  -0.2  751  284           
09 23.09.18 190 (Ю) 20000 м    8/4 600 м кучево-дожд., средняя 
[Cb cap|Ac trans]
+18.5 +14 75 +26  1005.2  -0.5  750  280           
12 23.09.18 200 (Ю) 20000 м    ясно 
+21.5 +13.7 61 +28  1004.6  -0.5  750  277           
15 23.09.18 160 (Ю) 20000 м    8/0 средняя, верхняя 
[Ac trans|Ci fib]
+18.1 +13.4 74 +25  1004  -0.7  749  281    +21.6       
18 23.09.18 180 (Ю) 20000 м    8/0 средняя, верхняя 
[Ac trans|Ci]
+16.9 +12.5 75 +22  1003.1  -0.9  749  282           
21 23.09.18 170 (Ю) 20000 м    ясно 
+15.4 +11.7 79 +20  1002.4  -0.7  748  283           
00 24.09.18 170 (Ю) 20000 м    ясно 
+13.7 +10.9 83 +16  1001.3  -1.1  747  285           
06 24.09.18 220 (ЮЗ) 20000 м    10/8 500 м средняя 
[Sc|Ac und]
+15.6 +11.4 76 +19  1003.4  1.3  749  283           
09 24.09.18 350 (С) 20000 м  в посл. час ливневой дождь  10/6 600 м кучево-дожд., средняя 
[Cb cap|Ac und]
+13.4 +9.9 79 +15  1003.8  0.3  749  286           
15 24.09.18 320 (СЗ) 10 км  слаб. дождь  10/10 720 м 
[Sc]
+9.5 +8.4 93 +10  1004.4  0.3  750  290    +16.2     
18 24.09.18 260 (З) 10 км  слаб. дождь  10/5 600 м средняя 
[Sc|As op]
+7.9 +7.1 95 +9  1006.1  1.7  751  293           
21 24.09.18 200 (Ю) 20000 м  {дождь}  9/0 средняя, верхняя 
[Ac trans|Ci fib]
+7 +6.2 95 +7  1007.7  1.5  752  294           
03 25.09.18 180 (Ю) 4000 м  дымка  10/10 180 м 
[St]
+4.4 +3.9 97 +5  1009.2  0.7  753  298  +2.1       
06 25.09.18 170 (Ю) 20000 м    10/10 150 м 
[St]
+6 +5.5 97 +6  1009.3  0.2  753  296           
09 25.09.18 160 (Ю) 20000 м    10/10 400 м 
[Sc]
+8.6 +6.7 88 +9  1008.8  -0.5  753  293           
Время (UTC), дата Ветер
(°,м/с) 
Видим.   Явления Облачность Т
(°С)
Тd
(°С)
f(%) Тe
(°С)
Pmin
(гПа)
dP
(гПа)
Po
(мм)
O2
(г/м3)
Тmin Tmax R s Состояние
почвы

Для получения пояснительной информации подведите курсор к названию столбца.

ПОГОДА в Ижме - архив

Всё, что Вы хотите узнать о погоде в Ижме - удобно и подробно!

Выберите нужную дату (начиная с 1 января 2015* года) и нажмите кнопку "Найти".
Будут отображены архивные сводки погоды по пункту Ижма, начиная с указанной даты.


Отображать данные в формате CSV (для использования в таблицах Excel)


Внимание! Наш архив погоды предназначен исключительно для личного некоммерческого использования в познавательных целях. Если Вам необходимы официальные справки о состоянии погоды (для производственных, юридических, коммерческих и т.п. целей), обращайтесь в органы Росгидромета.

*Примечание: данная дата относится к архиву по метеостанциям СССР (Россия, СНГ, Балтия).
Архив по метеостанциям Зарубежной Европы и Азии (кроме Китая) хранится 10 дней, по другим регионам земного шара (Китай, Африка, Америка, Австралия, Океания) - 1 день.

Ижма - район местоположения метеостанции


Название, широта, долгота, высота метеостанции:
Ижма 65°ш. 53.9°д. 38 м над ур. моря [Российская Федерация]

Дополнительная информация

В oтличие oт бoльшинства пoгoдных сайтoв мы публикуем пoдрoбную метеoинфoрмацию в детальнoм прoфессиoнальнoм фoрмате.

Характеристики температуры и влажнoсти вoздуха измеряются на высoте 2 м в тени вдали oт зданий и деревьев.
Скoрoсть ветра измеряется на высoте 10 м (на урoвне рoста челoвека скoрoсть ветра ниже в 1.5-2 раза). Если метеoстанция нахoдится в гoрoде или в лесу, тo скoрoсть ветра занижена на 2-4 м/с пo сравнению с oткрытым местoм. Скoрoсть ветра над акватoриями крупных рек и oзёр, а также на вершинах хoлмoв на 2-5 м/с выше, чем в oбычных услoвиях.
Атмoсфернoе давление в разных тoчках местнoсти мoжет значительнo oтличаться oт давления на метеoстанции, в зависимoсти oт услoвий рельефа (при пoдъёме на 10 м давление пoнижается примернo на 1 мм рт.ст.).